If you wish to contribute or participate in the discussions about articles you are invited to join SKYbrary as a registered user

 Actions

Capitán Aníbal Arab Airport

From SKYbrary Wiki

SLCO
Airport
ICAO: SLCO – IATA: CIJ
Summary
Name Capitán Aníbal Arab Airport
Region South America and Caribbean
Territory Bolivia BO.gif
Location Cobija, Pando
Serving Cobija
Elevation 270.967 m
889 ft
889 ft270.967 m
Type medium airport
Coordinates 11° 2' 25.57" S, 68° 46' 58.70" W
Runways
Designator Length Width Surface ROPS
2/20 2000 m6,561.68 ft
30 m98.425 ft
ASP /


METAR
Observation SLCO 061400Z 00000KT 9999 OVC005 24/23 Q1018
Station Cobija
Date/Time 06 June 2020 14:00:00
Wind direction
Wind speed 00 kts
Lowest cloud amount overcast
Temperature 24°C
Dew point 23°C
Humidity 94%
QNH 1018 hPa
Weather condition n/a

International airport serving the Acre River port city of Cobija, the capital of the Pando Department of Bolivia.

Climatology

Tropical Savanna climate (Köppen climate classification Aw).

Maps

Terrain

Loading map...

Airport Layout

Loading map...


Accidents & Serious Incidents at or in vicinity of SLCO

None on SKYbrary